CAPE
0 0 0 0 0 0 0 0 0 0 0 0 0 0 0 0 0 0 0 0 0 0
0 0 0 0 0 0 0 0 0 0 0 0 0 0 0 0 0 0 0 0 0 0
0 0 0 0 0 0 0 0 0 0 0 0 0 0 0 0 0 0 0 0 0 0
0 0 0 0 0 0 0 0 0 0 0 0 0 0 0 0 0 0 0 0 0 0
0 0 0 0 0 0 0 0 0 0 0 0 0 0 0 0 0 0 0 0 0 0
0 0 0 0 0 0 0 0 0 0 0 0 0 0 0 0 0 0 0 0 0 0
0 0 0 0 0 0 0 0 0 0 0 0 0 0 0 0 0 0 0 0 0 0
0 0 0 0 0 0 0 0 0 0 0 0 0 0 0 0 0 0 0 0 0 0
0 0 0 0 0 0 0 0 0 0 0 0 0 0 0 0 0 0 0 0 0 0
0 0 0 0 0 0 0 0 0 0 0 0 0 0 0 0 0 0 0 0 0 0
0 0 0 0 0 0 0 0 0 0 0 0 0 0 0 0 0 0 0 0 0 0
0 0 0 0 0 0 0 0 0 0 0 0 0 0 0 0 0 0 0 0 0 0
0 0 0 0 0 0 0 0 0 0 0 0 0 0 0 0 0 0 0 0 0 0
0 0 0 0 0 0 0 0 0 0 0 0 0 0 0 0 0 0 0 0 0 0
CIN
-0 -0 -0 -0 -0 -0 -0 -0 -0 -0 -0 -0 -0 -0 -0 -0 -0 -0 -0 -0 -0 -0
-0 -0 -0 -0 -0 -0 -0 -0 -0 -0 -0 -0 -0 -0 -0 -0 -0 -0 -0 -0 -0 -0
-0 -0 -0 -0 -0 -0 -0 -0 -0 -0 -0 -0 -0 -0 -0 -0 -0 -0 -0 -0 -0 -0
-0 -0 -0 -0 -0 -0 -0 -0 -0 -0 -0 -0 -0 -0 -0 -0 -0 -0 -0 -0 -0 -0
-0 -0 -0 -0 -0 -0 -0 -0 -0 -0 -0 -0 -0 -0 -0 -0 -0 -0 -0 -0 -0 -0
-0 -0 -0 -0 -0 -0 -0 -0 -0 -0 -0 -0 -0 -0 -0 -0 -0 -0 -0 -0 -0 -0
-0 -0 -0 -0 -0 -0 -0 -0 -0 -0 -0 -0 -0 -0 -0 -0 -0 -0 -0 -0 -0 -0
-0 -0 -0 -0 -0 -0 -0 -0 -0 -0 -0 -0 -0 -0 -0 -0 -0 -0 -0 -0 -0 -0
-0 -0 -0 -0 -0 -0 -0 -0 -0 -0 -0 -0 -0 -0 -0 -0 -0 -0 -0 -0 -0 -0
-0 -0 -0 -0 -0 -0 -0 -0 -0 -0 -0 -0 -0 -0 -0 -0 -0 -0 -0 -0 -0 -0
-0 -0 -0 -0 -0 -0 -0 -0 -0 -0 -0 -0 -0 -0 -0 -0 -0 -0 -0 -0 -0 -0
-0 -0 -0 -0 -0 -0 -0 -0 -0 -0 -0 -0 -0 -0 -0 -0 -0 -0 -0 -0 -0 -0
-0 -0 -0 -0 -0 -0 -0 -0 -0 -0 -0 -0 -0 -0 -0 -0 -0 -0 -0 -0 -0 -0
-0 -0 -0 -0 -0 -0 -0 -0 -0 -0 -0 -0 -0 -0 -0 -0 -0 -0 -0 -0 -0 -0
Wind_Speed
18 16 16 17 18 18 20 21 22 22 23 24 24 24 25 26 26 25 24 24 23 23
21 16 18 19 19 20 21 22 22 22 23 24 24 25 25 25 25 24 24 24 23 23
26 22 20 21 20 20 21 21 22 23 23 23 23 23 23 25 24 24 24 24 24 24
32 28 24 22 22 21 22 22 22 23 23 24 24 24 25 26 26 25 25 24 24 25
36 32 28 25 24 23 23 24 24 24 25 25 25 25 25 26 26 26 26 26 25 25
37 35 31 28 26 26 25 25 25 25 25 25 25 25 26 26 26 26 25 25 25 26
38 37 34 30 29 29 28 28 27 26 26 26 26 26 25 25 26 26 26 26 26 26
38 37 35 32 31 31 31 30 29 28 27 26 26 26 26 26 27 27 28 27 26 26
38 37 36 34 32 32 32 31 29 28 27 27 27 26 25 26 27 27 28 28 27 26
36 37 36 35 34 34 34 33 32 30 28 28 28 27 27 26 26 26 27 27 26 25
36 36 36 36 36 35 35 35 34 34 33 32 32 29 27 26 25 25 25 25 24 23
34 36 36 37 37 37 37 38 38 36 36 34 33 29 26 24 24 23 23 22 21 22
35 36 38 38 39 38 39 39 39 38 36 34 33 29 25 22 22 24 24 21 21 22
36 37 37 38 38 40 40 40 39 38 37 34 31 29 25 20 19 21 21 22 23 21
Wind_Direction
333 334 334 334 334 332 333 334 335 335 335 336 337 338 337 337 338 339 339 339 339 338
329 327 327 328 329 328 329 329 330 330 330 332 333 334 335 336 337 338 339 338 338 337
329 326 323 324 324 325 326 327 327 327 327 328 330 331 332 332 333 333 333 333 333 333
327 326 324 321 320 320 323 323 323 324 324 323 324 325 325 325 327 327 327 329 329 329
325 325 324 322 320 320 319 321 320 320 320 320 319 319 319 320 321 322 322 324 325 325
324 326 324 323 323 321 319 318 317 316 316 315 315 314 314 314 316 318 319 319 320 321
326 325 325 323 322 322 320 317 315 313 313 313 313 313 312 312 313 315 315 316 316 316
328 327 326 324 322 322 322 320 317 314 312 312 312 312 311 311 310 311 312 313 313 313
331 332 331 329 327 326 324 324 322 318 314 311 310 310 309 310 308 309 310 311 312 313
333 333 333 333 331 329 328 327 325 322 318 313 310 308 308 307 309 310 310 312 312 313
335 334 334 333 332 331 330 328 326 323 320 316 312 308 305 306 307 310 311 312 313 314
336 335 334 333 332 330 328 327 324 322 320 318 315 312 307 305 306 307 310 313 314 315
333 333 332 332 330 330 328 326 325 323 323 321 318 317 311 304 306 306 308 312 314 315
330 330 331 331 331 330 329 328 327 326 327 326 323 320 316 306 306 306 309 312 314 316